Weather History for EGOM - February, 2013

Change the Weather History Date:

Thursday, February 28, 2013

  Actual Average Record
Temperature  
Mean Temperature 38 °F -  
Max Temperature 50 °F - - ()
Min Temperature 26 °F - - ()
Degree Days  
Heating Degree Days 27    
Moisture  
Dew Point 31 °F    
Average Humidity 73    
Maximum Humidity 93    
Minimum Humidity 46    
Precipitation  
Precipitation 0.00 in - - ()
Sea Level Pressure  
Sea Level Pressure 30.49 in    
Wind  
Wind Speed 5 mph ()    
Max Wind Speed 13 mph    
Max Gust Speed -    
Visibility 6.2 miles    
Events      
T = Trace of Precipitation, MM = Missing Value Source: Averaged Metar Reports

Daily Weather History Graph

Daily Weather History Graph

Search for Another Location

Airport or City:

Trip Planner

Search our weather history database for the weather conditions in past years. The results will help you decide how hot, cold, wet, or windy it might be!

Date:

Astronomy

Feb. 28, 2013 Rise Set
Actual Time 7:02 AM GMT 5:43 PM GMT
Civil Twilight 6:25 AM GMT 6:20 PM GMT
Nautical Twilight 5:44 AM GMT 7:02 PM GMT
Astronomical Twilight 5:01 AM GMT 7:44 PM GMT
Moon 9:37 PM GMT (2/28) 7:28 AM GMT (2/28)
Length of Visible Light 11h 54m
Length of Day
10h 41m
Waning Gibbous, 92% of the Moon is Illuminated
Feb 28
Waning Gibbous
Mar 4
Last Quarter
Mar 11
New
Mar 19
First Quarter
Mar 27
Full

Hourly Weather History & Observations

Time (GMT) Temp. Windchill Dew Point Humidity Pressure Visibility Wind Dir Wind Speed Gust Speed Precip Events Conditions
12:50 AM 32.0 °F - 23.0 °F 69% 30.54 in 6.2 mi South 1.2 mph - N/A   Unknown
1:50 AM 26.6 °F 22.6 °F 21.2 °F 80% 30.54 in 6.2 mi NNE 3.5 mph - N/A   Unknown
2:50 AM 30.2 °F 26.7 °F 24.8 °F 80% 30.51 in 6.2 mi NNE 3.5 mph - N/A   Unknown
4:50 AM 30.2 °F 25.4 °F 26.6 °F 86% 30.48 in 6.2 mi North 4.6 mph - N/A   Unknown
6:50 AM 28.4 °F - 21.2 °F 74% 30.48 in 6.2 mi ESE 2.3 mph - N/A   Unknown
7:50 AM 30.2 °F - 24.8 °F 80% 30.51 in 6.2 mi NNE 2.3 mph - N/A   Unknown
8:50 AM 37.4 °F 31.4 °F 26.6 °F 65% 30.51 in - NE 8.1 mph - N/A   Clear
9:50 AM 41.0 °F 36.4 °F 30.2 °F 65% 30.51 in - ENE 6.9 mph - N/A   Clear
10:50 AM 44.6 °F 39.7 °F 28.4 °F 53% 30.51 in - East 9.2 mph - N/A   Clear
11:50 AM 46.4 °F 42.4 °F 28.4 °F 50% 30.48 in - East 8.1 mph - N/A   Clear
12:50 PM 48.2 °F - 28.4 °F 46% 30.48 in - ENE 9.2 mph - N/A   Clear
1:50 PM 50.0 °F - 32.0 °F 50% 30.48 in 6.2 mi ENE 9.2 mph - N/A   Scattered Clouds
2:50 PM 48.2 °F - 37.4 °F 66% 30.48 in 6.2 mi East 12.7 mph - N/A   Partly Cloudy
3:50 PM 46.4 °F 41.5 °F 37.4 °F 71% 30.48 in 6.2 mi ENE 10.4 mph - N/A   Mostly Cloudy
4:50 PM 44.6 °F 40.7 °F 37.4 °F 76% 30.45 in 6.2 mi East 6.9 mph - N/A   Mostly Cloudy
5:50 PM 42.8 °F 39.3 °F 37.4 °F 81% 30.48 in 6.2 mi NE 5.8 mph - N/A   Overcast
6:50 PM 41.0 °F 34.7 °F 37.4 °F 87% 30.48 in 6.2 mi ENE 10.4 mph - N/A   Mostly Cloudy
7:50 PM 39.2 °F 34.2 °F 37.4 °F 93% 30.48 in 6.2 mi NE 6.9 mph - N/A   Scattered Clouds
8:50 PM 39.2 °F 37.0 °F 35.6 °F 87% 30.48 in 6.2 mi East 3.5 mph - N/A   Mostly Cloudy
9:50 PM 39.2 °F - 35.6 °F 87% 30.48 in 6.2 mi ENE 2.3 mph - N/A   Overcast
10:50 PM 39.2 °F 33.6 °F 33.8 °F 81% 30.48 in 6.2 mi ENE 8.1 mph - N/A   Overcast
11:50 PM 39.2 °F 34.2 °F 33.8 °F 81% 30.48 in 6.2 mi ENE 6.9 mph - N/A   Overcast